KRUPKA Weather Reports


Display with metric or nautical units.
time (UTC)temp
F
wind
direction
speed
MPH
gust
MPH
rain 1hr
in
rain 24hr
in
rain mn
in
humidity
%
barometer
mb
20260507060503 46 12 2.0 4.0 0.00 0.00 0.00 91
20260507060004 46 349 2.0 7.0 0.00 0.00 0.00 91
20260507055508 46 3 2.0 4.0 0.00 0.00 0.00 91
20260507055004 46 353 4.0 7.0 0.00 0.00 0.00 91
20260507054503 46 13 2.0 7.0 0.00 0.00 0.00 91
20260507054003 46 16 2.0 7.0 0.00 0.00 0.00 91
20260507053504 46 13 4.0 4.0 0.00 0.00 0.00 91
20260507053003 46 26 4.0 7.0 0.00 0.00 0.00 91
20260507052504 46 39 2.0 4.0 0.00 0.00 0.00 91
20260507052005 46 17 2.0 2.0 0.00 0.00 0.00 91
20260507051504 46 13 0.0 2.0 0.00 0.00 0.00 91
20260507051003 46 359 0.0 0.0 0.00 0.00 0.00 90
20260507050503 46 354 0.0 0.0 0.00 0.00 0.00 91
20260507050004 46 355 0.0 2.0 0.00 0.00 0.00 91
20260507045503 46 348 0.0 2.0 0.00 0.00 0.00 91
20260507045004 46 348 2.0 2.0 0.00 0.00 0.00 91
20260507044504 46 356 2.0 4.0 0.00 0.00 0.00 90
20260507044003 46 349 2.0 4.0 0.00 0.00 0.00 91
20260507043504 46 1 0.0 2.0 0.00 0.00 0.00 91
20260507043003 46 22 0.0 2.0 0.00 0.00 0.00 91
20260507042503 46 19 2.0 2.0 0.00 0.00 0.00 91
20260507042003 46 23 2.0 2.0 0.00 0.00 0.00 91
20260507041509 46 24 2.0 2.0 0.00 0.00 0.00 91
20260507041003 46 31 2.0 2.0 0.00 0.00 0.00 90
20260507040504 46 53 2.0 2.0 0.00 0.00 0.00 90
20260507040004 46 60 0.0 0.0 0.00 0.00 0.00 90
20260507035503 46 50 0.0 0.0 0.00 0.00 0.00 90
20260507035004 46 27 0.0 2.0 0.00 0.00 0.00 90
20260507034503 46 33 2.0 2.0 0.00 0.00 0.00 90
20260507034003 46 21 2.0 2.0 0.00 0.00 0.00 90
20260507033504 46 40 2.0 2.0 0.00 0.00 0.00 90
20260507033003 46 55 2.0 2.0 0.00 0.00 0.00 90
20260507032503 46 4 0.0 0.0 0.00 0.00 0.00 90
20260507032006 46 330 0.0 2.0 0.00 0.00 0.00 90
20260507031503 46 341 0.0 2.0 0.00 0.00 0.00 90
20260507031001 46 46 0.0 0.0 0.00 0.00 0.00 90
20260507030503 46 349 2.0 2.0 0.00 0.00 0.00 90
20260507030003 46 29 2.0 2.0 0.00 0.00 0.00 90
20260507025503 46 15 2.0 2.0 0.00 0.00 0.00 89
20260507025003 46 341 2.0 2.0 0.00 0.00 0.00 89
20260507024504 46 261 2.0 2.0 0.00 0.00 0.00 89
20260507024003 46 20 0.0 0.0 0.00 0.00 0.00 89
20260507023503 46 18 2.0 2.0 0.00 0.00 0.00 89
20260507023004 46 359 0.0 0.0 0.00 0.00 0.00 89
20260507022503 46 279 0.0 0.0 0.00 0.00 0.00 89
20260507022004 46 272 0.0 0.0 0.00 0.00 0.00 89
20260507021504 46 274 0.0 0.0 0.00 0.00 0.00 89
20260507021003 46 8 0.0 0.0 0.00 0.00 0.00 89
20260507020503 46 32 0.0 0.0 0.00 0.00 0.00 89
20260507020003 46 317 0.0 0.0 0.00 0.00 0.00 89
20260507015503 46 303 4.0 4.0 0.00 0.00 0.00 89
20260507015004 46 281 2.0 4.0 0.00 0.00 0.00 89
20260507014503 46 292 2.0 2.0 0.00 0.00 0.00 89
20260507014004 46 286 2.0 4.0 0.00 0.00 0.00 89
20260507013503 46 264 2.0 4.0 0.00 0.00 0.00 90
20260507013005 46 305 2.0 4.0 0.00 0.00 0.00 90
20260507012504 46 353 4.0 9.0 0.00 0.00 0.00 90
20260507011503 46 351 7.0 11.0 0.00 0.00 0.00 90
20260507011004 46 353 7.0 11.0 0.00 0.00 0.00 90
20260507010503 46 344 7.0 11.0 0.00 0.00 0.00 89
20260507010004 46 1 4.0 9.0 0.00 0.00 0.00 90
20260507005502 46 357 9.0 13.0 0.00 0.00 0.00 90
20260507005002 46 338 9.0 13.0 0.00 0.00 0.00 90
20260507004504 46 354 7.0 11.0 0.00 0.00 0.00 90
20260507004003 46 1 9.0 13.0 0.00 0.00 0.00 90
20260507003503 46 356 9.0 11.0 0.00 0.00 0.00 90
20260507003003 46 356 7.0 13.0 0.00 0.00 0.00 89
20260507002503 46 348 9.0 13.0 0.00 0.00 0.00 91
20260507002005 46 352 9.0 13.0 0.00 0.00 0.00 89
20260507001504 46 350 9.0 11.0 0.00 0.00 0.00 89
20260507001003 46 6 7.0 13.0 0.00 0.00 0.00 89
20260507000503 46 1 7.0 11.0 0.00 0.00 0.00 89
20260507000004 46 4 9.0 16.0 0.00 0.00 0.00 89
20260506235504 46 355 9.0 13.0 0.00 0.00 0.00 89
20260506235003 46 358 9.0 13.0 0.00 0.00 0.00 89
20260506234503 46 359 9.0 13.0 0.00 0.00 0.00 89
20260506234004 46 2 9.0 16.0 0.00 0.00 0.00 89
20260506233503 46 347 9.0 13.0 0.00 0.00 0.00 89
20260506233003 48 9 7.0 11.0 0.00 0.00 0.00 88
20260506232507 48 355 7.0 13.0 0.00 0.00 0.00 88
20260506232005 48 11 2.0 4.0 0.00 0.00 0.00 89
20260506231503 48 67 0.0 2.0 0.00 0.00 0.00 89
20260506231003 48 134 0.0 2.0 0.00 0.00 0.00 90
20260506230504 50 144 2.0 2.0 0.00 0.00 0.00 92
20260506230003 50 150 2.0 4.0 0.00 0.00 0.00 93
20260506225503 50 163 4.0 7.0 0.00 0.00 0.00 92
20260506225003 50 164 2.0 2.0 0.00 0.00 0.00 90
20260506224503 50 204 0.0 2.0 0.00 0.00 0.00 86
20260506224003 50 220 2.0 2.0 0.00 0.00 0.00 86
20260506223503 50 246 0.0 2.0 0.00 0.00 0.00 85
20260506223003 50 246 2.0 2.0 0.00 0.00 0.00 85
20260506222506 50 234 2.0 2.0 0.00 0.00 0.00 85
20260506222009 50 224 2.0 2.0 0.00 0.00 0.00 85
20260506221504 50 244 2.0 2.0 0.00 0.00 0.00 85
20260506221002 50 254 2.0 2.0 0.00 0.00 0.00 85
20260506220504 50 92 0.0 2.0 0.00 0.00 0.00 84
20260506220004 50 58 0.0 0.0 0.00 0.00 0.00 84
20260506215503 52 357 2.0 4.0 0.00 0.00 0.00 85
20260506215004 52 20 4.0 7.0 0.00 0.00 0.00 85
20260506214503 52 14 2.0 4.0 0.00 0.00 0.00 85
20260506214004 52 33 4.0 11.0 0.00 0.00 0.00 86
20260506213503 52 36 7.0 7.0 0.00 0.00 0.00 85
20260506213004 52 357 4.0 7.0 0.00 0.00 0.00 84
20260506212503 52 29 4.0 7.0 0.00 0.00 0.00 84
20260506212005 52 37 7.0 11.0 0.00 0.00 0.00 85
20260506211504 52 19 9.0 11.0 0.00 0.00 0.00 83
20260506211002 52 14 7.0 13.0 0.00 0.00 0.00 81
20260506210503 52 345 4.0 9.0 0.00 0.00 0.00 81
20260506210003 52 7 7.0 11.0 0.00 0.00 0.00 81
20260506205503 52 16 7.0 9.0 0.00 0.00 0.00 81
20260506205003 52 359 7.0 11.0 0.00 0.00 0.00 80
20260506204504 52 10 4.0 11.0 0.00 0.00 0.00 80
20260506204003 52 18 2.0 4.0 0.00 0.00 0.00 79
20260506203503 52 13 4.0 9.0 0.00 0.00 0.00 79
20260506203004 52 10 4.0 9.0 0.00 0.00 0.00 78
20260506202005 52 7 4.0 7.0 0.00 0.00 0.00 78
20260506201510 52 5 2.0 4.0 0.00 0.00 0.00 78
20260506201002 52 27 2.0 7.0 0.00 0.00 0.00 78
20260506200504 54 20 7.0 11.0 0.00 0.00 0.00 78
20260506200004 54 19 4.0 9.0 0.00 0.00 0.00 79
20260506195502 54 13 4.0 11.0 0.00 0.00 0.00 77
20260506195011 54 3 4.0 9.0 0.00 0.00 0.00 77
20260506194503 54 15 7.0 9.0 0.00 0.00 0.00 76
20260506194003 54 5 4.0 9.0 0.00 0.00 0.00 76
20260506193504 54 34 4.0 11.0 0.00 0.00 0.00 77
20260506193004 54 25 9.0 16.0 0.00 0.00 0.00 77
20260506192503 54 5 9.0 20.0 0.00 0.00 0.00 76
20260506192004 54 7 9.0 16.0 0.00 0.00 0.00 74
20260506191503 54 20 9.0 16.0 0.00 0.00 0.00 74
20260506191003 54 358 9.0 16.0 0.00 0.00 0.00 73
20260506190503 54 4 7.0 9.0 0.00 0.00 0.00 73
20260506190005 54 10 7.0 9.0 0.00 0.00 0.00 73
20260506185508 55 18 4.0 9.0 0.00 0.00 0.00 73
20260506185004 55 2 7.0 13.0 0.00 0.00 0.00 73
20260506184503 55 8 9.0 13.0 0.00 0.00 0.00 72
20260506184004 55 13 7.0 11.0 0.00 0.00 0.00 72
20260506183503 55 5 7.0 9.0 0.00 0.00 0.00 70
20260506183004 55 342 7.0 13.0 0.00 0.00 0.00 70
20260506182503 55 358 7.0 13.0 0.00 0.00 0.00 69
20260506182005 55 4 7.0 11.0 0.00 0.00 0.00 69
20260506181503 57 350 4.0 9.0 0.00 0.00 0.00 68
20260506181002 57 352 4.0 7.0 0.00 0.00 0.00 67
20260506180503 57 1 4.0 9.0 0.00 0.00 0.00 67
20260506180004 57 356 4.0 9.0 0.00 0.00 0.00 67
20260506175504 57 10 4.0 7.0 0.00 0.00 0.00 66
20260506175004 57 358 4.0 7.0 0.00 0.00 0.00 65
20260506174510 59 356 4.0 7.0 0.00 0.00 0.00 65
20260506174003 59 3 4.0 7.0 0.00 0.00 0.00 64
20260506173503 59 16 4.0 11.0 0.00 0.00 0.00 64
20260506173005 59 354 4.0 7.0 0.00 0.00 0.00 62
20260506172504 59 343 7.0 9.0 0.00 0.00 0.00 62
20260506172004 59 339 4.0 9.0 0.00 0.00 0.00 62
20260506171504 59 333 4.0 7.0 0.00 0.00 0.00 62
20260506171004 59 335 2.0 4.0 0.00 0.00 0.00 62
20260506170503 59 338 2.0 4.0 0.00 0.00 0.00 61
20260506170004 59 220 0.0 0.0 0.00 0.00 0.00 61
20260506165504 59 196 0.0 0.0 0.00 0.00 0.00 61
20260506165005 59 204 0.0 0.0 0.00 0.00 0.00 61
20260506164503 59 239 0.0 0.0 0.00 0.00 0.00 61
20260506164004 59 239 2.0 2.0 0.00 0.00 0.00 61
20260506163503 59 246 2.0 2.0 0.00 0.00 0.00 61
20260506163004 59 262 0.0 2.0 0.00 0.00 0.00 62
20260506162502 59 223 0.0 0.0 0.00 0.00 0.00 61
20260506162010 59 222 0.0 0.0 0.00 0.00 0.00 61
20260506161503 59 179 0.0 2.0 0.00 0.00 0.00 61
20260506161002 59 211 2.0 4.0 0.00 0.00 0.00 61
20260506160503 59 232 2.0 9.0 0.00 0.00 0.00 60
20260506160004 61 213 4.0 7.0 0.00 0.00 0.00 59
20260506155504 61 199 4.0 7.0 0.00 0.00 0.00 59
20260506155004 61 252 2.0 7.0 0.00 0.00 0.00 59
20260506154503 61 240 4.0 9.0 0.00 0.00 0.00 59
20260506154003 61 205 7.0 9.0 0.00 0.00 0.00 59
20260506153504 61 201 4.0 9.0 0.00 0.00 0.00 58
20260506153003 61 232 7.0 9.0 0.00 0.00 0.00 58
20260506152503 61 238 4.0 9.0 0.00 0.00 0.00 58
20260506152004 61 233 7.0 11.0 0.00 0.00 0.00 59
20260506151503 61 233 7.0 9.0 0.00 0.00 0.00 58
20260506151003 61 234 2.0 4.0 0.00 0.00 0.00 59
20260506150504 61 221 4.0 7.0 0.00 0.00 0.00 59
20260506150004 61 226 4.0 9.0 0.00 0.00 0.00 60
20260506145503 61 239 2.0 9.0 0.00 0.00 0.00 60
20260506145002 61 168 4.0 4.0 0.00 0.00 0.00 60
20260506144504 61 183 4.0 7.0 0.00 0.00 0.00 60
20260506144011 61 199 2.0 4.0 0.00 0.00 0.00 59
20260506143504 61 219 4.0 7.0 0.00 0.00 0.00 59
20260506143004 61 235 7.0 11.0 0.00 0.00 0.00 58
20260506142504 61 242 2.0 4.0 0.00 0.00 0.00 59
20260506142005 61 218 4.0 11.0 0.00 0.00 0.00 59
20260506141503 63 218 9.0 11.0 0.00 0.00 0.00 57
20260506141002 61 209 9.0 9.0 0.00 0.00 0.00 58
20260506140504 63 231 7.0 9.0 0.00 0.00 0.00 58
20260506140004 63 228 4.0 9.0 0.00 0.00 0.00 59
20260506135503 63 226 4.0 7.0 0.00 0.00 0.00 60
20260506135004 63 206 9.0 13.0 0.00 0.00 0.00 58
20260506134508 63 245 4.0 7.0 0.00 0.00 0.00 61
20260506134002 63 251 4.0 9.0 0.00 0.00 0.00 62
20260506133503 61 194 7.0 9.0 0.00 0.00 0.00 58
20260506133003 63 226 2.0 4.0 0.00 0.00 0.00 62
20260506132503 63 215 4.0 7.0 0.00 0.00 0.00 62
20260506132005 61 211 9.0 11.0 0.00 0.00 0.00 61
20260506131503 61 210 4.0 4.0 0.00 0.00 0.00 61
20260506131003 61 206 7.0 11.0 0.00 0.00 0.00 62
20260506130503 61 213 4.0 9.0 0.00 0.00 0.00 62
20260506130004 61 239 7.0 13.0 0.00 0.00 0.00 63
20260506125504 61 238 7.0 11.0 0.00 0.00 0.00 63
20260506125003 61 227 2.0 4.0 0.00 0.00 0.00 64
20260506124504 61 219 4.0 9.0 0.00 0.00 0.00 65
20260506124004 61 226 7.0 11.0 0.00 0.00 0.00 64
20260506123504 61 244 7.0 11.0 0.00 0.00 0.00 66
20260506123003 61 226 4.0 7.0 0.00 0.00 0.00 66
20260506122503 61 222 7.0 13.0 0.00 0.00 0.00 66
20260506122004 61 207 9.0 13.0 0.00 0.00 0.00 64
20260506121503 61 233 9.0 13.0 0.00 0.00 0.00 65
20260506121003 61 232 7.0 11.0 0.00 0.00 0.00 68
20260506120504 59 241 4.0 9.0 0.00 0.00 0.00 68
20260506120003 59 240 7.0 11.0 0.00 0.00 0.00 69
20260506115503 59 254 4.0 11.0 0.00 0.00 0.00 70
20260506115003 57 197 7.0 11.0 0.00 0.00 0.00 68
20260506114503 59 207 9.0 13.0 0.00 0.00 0.00 68
20260506114002 59 239 9.0 13.0 0.00 0.00 0.00 69
20260506113503 57 216 9.0 13.0 0.00 0.00 0.00 70
20260506113004 59 215 9.0 16.0 0.00 0.00 0.00 69
20260506112503 59 237 4.0 11.0 0.00 0.00 0.00 69
20260506112006 61 244 7.0 13.0 0.00 0.00 0.00 71
20260506111504 59 247 7.0 11.0 0.00 0.00 0.00 72
20260506111004 57 227 7.0 11.0 0.00 0.00 0.00 72
20260506110503 57 235 7.0 11.0 0.00 0.00 0.00 73
20260506110003 57 243 4.0 9.0 0.00 0.00 0.00 74
20260506105504 57 224 7.0 13.0 0.00 0.00 0.00 73
20260506105003 57 216 7.0 11.0 0.00 0.00 0.00 73
20260506104504 57 262 4.0 7.0 0.00 0.00 0.00 75
20260506104003 55 220 7.0 9.0 0.00 0.00 0.00 75
20260506103503 55 209 7.0 9.0 0.00 0.00 0.00 75
20260506103004 55 221 7.0 13.0 0.00 0.00 0.00 75
20260506102503 55 214 2.0 4.0 0.00 0.00 0.00 76
20260506102003 57 212 4.0 9.0 0.00 0.00 0.00 75
20260506101503 57 249 4.0 9.0 0.00 0.00 0.00 77
20260506101003 57 237 7.0 13.0 0.00 0.00 0.00 75
20260506100503 57 205 7.0 11.0 0.00 0.00 0.00 75
20260506100004 59 254 7.0 11.0 0.00 0.00 0.00 75
20260506095504 57 229 7.0 11.0 0.00 0.00 0.00 76
20260506095004 57 218 9.0 13.0 0.00 0.00 0.00 75
20260506094504 57 242 4.0 9.0 0.00 0.00 0.00 77
20260506094004 59 230 4.0 9.0 0.00 0.00 0.00 76
20260506093503 57 207 7.0 11.0 0.00 0.00 0.00 75
20260506093004 57 228 7.0 11.0 0.00 0.00 0.00 77
20260506092508 55 246 9.0 13.0 0.00 0.00 0.00 78
20260506092007 55 239 9.0 13.0 0.00 0.00 0.00 79
20260506091503 55 224 9.0 18.0 0.00 0.00 0.00 79
20260506091003 55 223 9.0 11.0 0.00 0.00 0.00 80
20260506090504 55 234 7.0 11.0 0.00 0.00 0.00 80
20260506090003 57 241 7.0 11.0 0.00 0.00 0.00 81
20260506085503 55 234 7.0 11.0 0.00 0.00 0.00 83
20260506085003 55 225 9.0 16.0 0.00 0.00 0.00 82
20260506084503 55 234 9.0 13.0 0.00 0.00 0.00 84
20260506084003 55 237 7.0 11.0 0.00 0.00 0.00 86
20260506083502 54 237 7.0 13.0 0.00 0.00 0.00 87
20260506083004 54 248 9.0 16.0 0.00 0.00 0.00 87
20260506082504 54 247 7.0 11.0 0.00 0.00 0.00 88
20260506082005 54 250 7.0 11.0 0.00 0.00 0.00 89
20260506081503 52 243 7.0 11.0 0.00 0.00 0.00 90
20260506081005 52 242 4.0 9.0 0.00 0.00 0.00 90
20260506080503 52 221 7.0 11.0 0.00 0.00 0.00 90
20260506073503 50 232 4.0 9.0 0.00 0.00 0.00 91
20260506073003 50 267 2.0 7.0 0.00 0.00 0.00 92
20260506072504 50 268 4.0 7.0 0.00 0.00 0.00 92
20260506072006 50 275 11.0 13.0 0.00 0.00 0.00 92
20260506071503 50 266 4.0 9.0 0.00 0.00 0.00 92
20260506071003 48 247 4.0 9.0 0.00 0.00 0.00 92
20260506070504 48 255 4.0 7.0 0.00 0.00 0.00 92
20260506062504 48 244 7.0 11.0 0.00 0.00 0.00 92
20260506062007 48 269 7.0 11.0 0.00 0.00 0.00 92
20260506061504 48 259 2.0 9.0 0.00 0.00 0.00 92
20260506061003 48 265 7.0 11.0 0.00 0.00 0.00 92